Wind_Speed
11 3 3 3 2 6 6 8 4 7 5 6 8 9 10 11 11 14 16 19 18 17 18 27 31 33 32 34 31 29 29 30 34 34 37 36 33 34 36 37 35 32 30 33
5 13 11 2 1 5 2 5 8 9 6 3 4 6 9 11 13 14 15 17 18 19 26 27 30 31 30 31 32 31 33 36 35 38 36 35 37 37 37 33 33 33 33 32
4 7 6 9 7 5 5 4 3 3 6 5 4 7 9 10 11 12 13 14 15 16 21 24 26 29 31 30 31 33 34 34 37 38 35 33 28 30 32 33 31 33 33 31
5 3 5 5 7 7 9 5 7 9 8 6 7 7 8 9 9 10 11 12 12 13 17 20 23 24 26 30 31 33 34 34 34 30 27 25 27 30 29 28 29 30 30 31
4 7 5 6 9 6 4 4 2 6 9 8 7 6 10 9 9 9 9 12 15 16 16 17 19 22 25 27 28 26 27 27 29 25 25 28 30 28 27 29 29 31 31 31
4 6 4 6 5 2 1 6 4 5 7 9 8 4 4 6 8 9 11 12 14 16 18 20 21 21 22 22 21 22 22 23 25 24 29 28 26 25 22 23 25 23 26 30
9 8 6 3 3 3 6 5 7 5 7 9 6 5 6 5 6 7 9 13 13 16 19 21 21 21 23 24 25 22 23 24 23 27 25 26 25 24 24 21 22 24 23 23
6 6 10 5 4 3 8 11 9 10 11 13 12 9 7 5 4 7 9 11 13 15 17 19 21 21 22 24 22 21 20 20 21 20 20 19 20 21 24 24 23 23 23 22
5 4 5 3 7 9 8 10 9 11 11 12 11 8 6 5 4 5 8 10 11 13 14 16 18 19 20 21 20 19 20 21 20 21 20 20 21 21 22 23 22 21 22 21
6 5 7 7 7 9 9 9 9 9 10 11 11 9 7 6 5 6 10 11 11 13 15 17 18 20 20 21 21 19 20 20 20 21 21 21 19 20 20 22 21 20 21 20
4 7 9 7 7 8 10 8 9 8 9 9 9 8 7 7 8 9 9 10 11 13 14 15 16 18 19 20 20 19 18 19 20 18 19 19 17 14 16 15 18 17 17 17
1 13 2 11 7 8 9 8 8 8 9 9 9 8 8 8 9 8 9 9 11 12 13 14 15 17 18 19 20 19 18 18 19 18 19 18 17 15 13 14 12 14 16 17
4 9 12 12 10 10 8 8 9 9 9 9 9 10 10 10 9 7 9 10 11 11 12 12 14 15 17 17 16 16 16 15 16 15 16 16 16 16 16 14 12 10 16 17
14 16 12 12 7 12 11 11 10 10 10 10 10 10 10 10 8 8 8 8 9 10 11 12 14 16 17 17 16 15 15 13 15 15 15 16 15 15 15 15 17 17 14 16
11 5 12 13 14 12 13 12 9 9 11 11 10 10 9 8 7 6 6 5 3 7 8 11 12 14 16 16 15 14 14 14 15 14 14 14 15 15 15 16 16 17 17 15
11 14 14 15 14 12 10 9 9 9 10 10 10 9 8 7 6 5 4 6 5 5 6 7 9 12 16 15 15 13 12 12 13 14 14 14 15 15 15 15 16 15 16 11
15 15 14 13 12 11 9 9 11 11 10 10 9 8 8 6 5 4 3 3 3 3 4 6 8 12 14 14 14 12 12 13 13 13 13 14 15 15 16 16 16 15 15 6
10 12 13 13 12 11 10 12 13 13 12 11 10 8 7 4 3 2 1 4 5 7 7 5 9 10 10 11 13 12 12 13 14 14 14 15 16 16 16 16 16 15 14 12
11 12 12 14 14 14 15 15 14 13 12 11 10 8 6 4 2 1 3 5 8 10 0 5 7 8 10 10 13 11 12 14 15 15 14 14 16 15 16 16 16 17 16 14
11 12 14 15 15 16 17 14 15 13 11 10 10 7 4 2 1 3 6 10 11 7 7 9 9 11 10 10 11 12 13 14 14 15 15 15 15 16 16 16 16 16 16 14
13 16 16 15 15 15 15 15 15 13 10 10 7 5 3 1 2 5 8 8 5 5 10 10 10 11 11 9 13 14 14 14 15 15 15 15 16 15 16 16 17 17 16 14
14 15 15 15 15 15 12 12 11 12 10 8 6 4 1 6 8 8 10 4 8 9 11 13 13 12 10 15 15 17 17 17 17 17 17 16 16 16 16 16 16 16 16 14
13 15 15 14 14 14 12 10 10 10 9 6 4 3 4 6 5 6 7 2 10 11 14 14 12 12 13 14 16 18 19 19 19 20 20 19 18 18 17 18 15 16 16 15
16 15 15 14 14 13 11 10 9 8 6 4 5 4 4 6 6 5 5 9 10 14 14 13 12 13 15 17 18 19 18 19 20 21 21 20 22 23 22 19 16 15 14 14
15 16 15 14 12 10 10 10 8 7 5 5 3 3 2 4 5 8 8 9 10 13 14 14 15 14 16 17 18 18 19 21 20 19 22 22 18 19 22 24 25 20 16 14
16 13 13 12 9 9 8 9 6 6 5 4 3 2 2 4 6 7 8 10 11 13 14 14 14 15 15 16 18 19 19 20 21 21 21 21 22 23 22 22 23 24 23 16
12 12 12 10 7 7 6 5 4 5 3 0 3 1 3 4 5 7 9 10 11 13 14 15 16 16 17 17 18 18 18 19 19 19 20 21 22 22 23 22 24 21 24 28
Wind_Direction
272 268 189 48 327 358 354 316 323 109 98 42 30 15 16 7 14 13 16 13 10 5 8 13 16 15 18 25 23 28 34 34 38 44 43 42 40 39 43 43 42 42 38 39
260 232 232 216 206 203 97 82 98 125 97 89 67 52 31 21 18 16 16 14 9 8 12 12 17 20 19 26 25 26 27 29 32 37 36 35 36 37 40 39 38 40 37 36
264 184 194 217 177 143 141 44 226 236 108 147 78 47 35 21 23 19 14 15 15 15 14 9 11 18 25 26 27 27 28 30 32 32 33 33 34 36 37 37 36 37 36 35
279 172 237 95 158 168 127 95 90 107 134 129 104 86 58 32 25 21 17 15 24 24 19 18 20 21 23 28 31 30 30 30 35 31 34 34 36 36 36 37 37 36 35 34
259 238 104 167 199 192 220 116 89 143 151 151 149 152 75 36 19 21 22 19 22 27 30 29 32 28 28 26 30 32 34 33 39 35 36 37 36 33 33 35 35 35 35 32
266 253 272 77 124 141 165 197 143 151 170 183 180 255 76 34 22 5 28 25 26 28 29 29 28 30 29 30 33 36 31 36 37 35 36 35 37 35 38 38 37 36 37 35
237 260 104 88 157 130 208 105 132 129 163 158 158 57 96 56 30 0 28 32 30 33 32 29 24 27 28 24 28 28 28 27 29 31 30 31 32 32 30 29 31 30 29 28
231 255 237 34 142 241 110 117 124 108 96 104 112 106 92 75 29 25 34 35 33 38 35 30 26 25 27 23 20 20 23 26 29 28 31 29 30 28 26 22 23 21 19 20
5 40 74 29 66 102 110 119 119 115 119 119 112 108 109 92 59 42 45 45 38 42 42 36 32 28 26 18 15 18 22 22 21 23 23 24 26 26 24 21 19 18 14 13
179 123 111 90 75 92 105 110 116 111 118 124 121 121 124 130 103 70 52 42 39 41 39 34 28 25 22 15 12 13 17 19 14 18 14 17 20 22 24 19 16 16 12 8
92 128 118 105 95 97 99 111 106 103 107 117 121 112 106 92 75 63 56 54 45 43 38 32 26 23 17 13 11 11 14 12 14 12 12 10 19 26 25 24 23 15 10 6
150 158 89 132 114 116 116 118 117 117 110 99 106 106 103 90 77 69 62 51 48 42 36 28 25 20 13 10 10 8 6 7 5 4 3 5 4 4 11 19 21 27 29 18
138 110 104 119 121 125 130 137 118 114 112 109 105 106 99 92 80 73 62 52 45 39 32 24 20 15 8 5 4 4 359 359 354 358 357 355 354 353 348 351 354 17 21 14
122 121 116 140 145 158 133 119 115 108 109 108 106 102 101 96 84 66 52 41 36 33 27 19 14 9 1 358 357 354 353 354 353 347 347 347 344 341 338 341 341 343 354 6
151 119 136 146 142 138 137 137 133 127 122 117 117 115 110 103 89 71 49 25 31 35 24 15 9 2 358 356 353 349 348 347 345 338 336 335 334 334 333 333 333 333 336 347
128 128 138 148 148 150 151 151 140 135 133 127 114 107 104 109 102 84 48 24 22 13 1 357 357 353 357 356 351 346 343 341 339 334 330 331 331 329 326 327 325 329 333 349
144 151 155 153 156 155 154 147 142 143 136 129 128 131 129 125 119 97 44 1 319 309 317 338 340 346 359 352 349 340 336 334 333 328 329 327 326 327 321 321 319 321 327 358
148 151 158 159 157 150 145 143 143 146 147 145 142 138 134 142 93 121 327 334 329 304 284 285 326 337 341 341 345 334 334 334 331 329 327 328 329 317 320 320 316 316 316 319
137 140 146 149 151 150 146 144 144 141 141 144 141 137 138 139 122 13 324 315 300 283 48 284 302 323 325 330 343 331 335 333 328 326 328 325 322 322 320 318 318 314 312 310
129 135 136 137 137 141 134 134 136 135 139 141 142 141 144 141 257 313 311 289 280 302 323 308 300 306 306 313 326 320 327 326 322 322 321 319 316 318 313 313 313 310 309 310
106 110 114 120 117 122 132 139 138 136 142 145 145 148 152 72 301 296 283 301 35 351 329 311 292 298 300 309 318 313 313 310 309 312 311 311 310 310 312 311 309 308 306 308
135 133 130 131 129 126 131 132 134 143 146 152 151 146 219 260 231 244 249 290 327 334 330 321 313 310 295 303 304 304 300 301 302 301 301 299 302 301 303 306 305 304 304 301
136 137 136 136 137 136 136 142 149 150 153 158 170 201 256 315 314 320 323 304 329 326 327 319 325 316 304 304 297 297 297 297 297 297 296 294 293 292 290 295 295 298 298 295
139 141 138 138 138 140 147 159 158 163 164 177 203 219 285 317 315 316 324 328 330 332 323 326 332 328 316 307 301 301 303 306 306 303 302 306 306 303 300 283 278 283 286 289
143 142 144 148 151 158 155 161 168 176 178 213 177 207 274 327 320 326 323 321 330 325 325 326 335 332 323 317 318 318 314 310 310 312 307 302 302 305 301 298 301 284 268 275
153 156 159 166 165 161 165 168 193 170 193 196 214 144 327 327 326 329 330 329 327 330 327 327 330 329 325 322 321 317 316 314 314 314 313 311 309 307 304 300 300 299 302 266
159 157 159 169 174 170 172 174 188 177 167 248 282 76 332 327 328 329 332 330 331 330 328 326 325 326 323 322 320 319 318 316 319 323 316 311 310 311 315 322 324 314 304 309
Height
764 761 767 776 787 776 775 760 759 778 788 802 808 811 814 812 807 804 802 799 796 790 785 779 770 762 755 751 751 750 744 738 724 723 720 719 724 722 714 715 716 720 721 715
777 763 766 780 788 776 776 778 782 778 796 806 809 811 814 812 808 807 806 805 802 797 790 784 781 777 770 765 759 756 747 736 733 723 727 731 728 725 724 730 729 728 725 725
753 751 757 765 784 780 778 770 768 763 791 803 806 812 819 817 814 815 812 810 809 806 800 796 789 785 780 774 769 760 753 747 739 738 740 740 748 746 740 740 740 737 736 735
753 756 757 782 769 767 769 776 776 787 796 799 807 816 820 821 820 819 817 813 811 810 806 802 797 793 789 782 775 769 763 758 755 761 763 764 759 753 753 754 752 748 747 744
753 740 776 783 775 770 766 781 785 786 796 804 810 812 820 824 824 821 819 816 812 810 808 806 803 799 795 790 788 787 785 784 776 778 774 768 762 761 761 761 757 756 754 751
751 749 742 773 776 778 775 773 787 788 793 800 805 803 812 826 828 823 819 817 815 813 811 807 804 803 800 798 796 793 792 787 786 785 779 776 775 776 774 769 769 766 765 764
753 746 763 783 787 788 777 782 789 788 790 793 804 818 826 828 829 825 822 820 817 816 813 811 809 806 804 800 796 795 794 791 789 786 784 783 782 780 778 776 773 771 769 767
749 747 749 791 794 786 787 790 793 796 801 808 818 826 831 833 833 827 823 822 821 819 819 817 815 812 810 807 805 803 800 798 796 794 792 791 789 786 783 779 777 774 772 770
765 777 794 800 794 794 796 799 800 802 806 813 821 829 833 834 833 829 827 826 825 825 824 824 822 821 818 816 811 808 805 803 801 799 797 794 792 790 788 785 784 782 779 776
778 792 796 801 803 803 804 806 806 807 811 816 821 826 830 829 829 828 829 829 829 828 828 827 826 824 823 820 815 812 809 807 805 801 800 797 795 794 794 795 791 787 786 783
790 795 799 805 807 809 810 812 811 813 814 816 818 821 824 827 830 832 833 833 833 833 832 832 831 830 828 825 821 818 814 812 810 808 806 804 802 801 801 801 799 798 795 791
767 785 791 802 810 813 815 817 818 819 820 820 822 825 828 831 833 835 837 837 837 837 837 836 835 834 832 829 826 823 819 817 815 812 810 808 807 805 803 803 802 800 796 794
784 792 798 807 813 817 819 818 820 822 823 825 828 829 832 836 839 841 840 841 841 842 841 841 840 839 836 834 831 829 826 823 821 817 816 814 812 809 807 805 802 798 796 794
792 797 805 810 813 816 817 821 824 826 828 830 832 835 838 840 843 844 846 846 845 845 844 844 842 840 837 835 832 830 828 825 823 821 818 816 813 811 809 805 801 798 797 794
794 794 800 806 811 816 821 824 826 829 831 834 837 839 841 843 846 847 848 848 848 848 848 847 845 843 840 837 834 832 829 827 826 823 820 818 815 812 808 805 803 800 797 795
794 799 803 807 811 816 820 823 825 830 834 837 839 841 844 847 849 850 851 851 851 851 851 849 848 845 841 838 836 833 830 829 827 824 821 818 816 813 810 807 804 802 799 798
793 799 803 808 812 816 820 824 829 834 837 841 844 847 848 850 851 852 853 853 853 852 850 849 847 844 842 840 837 835 832 829 827 824 821 819 816 814 811 808 805 802 800 798
791 797 802 807 812 817 823 827 832 836 840 843 846 848 849 850 850 852 852 851 850 849 848 847 845 844 843 841 838 835 832 830 827 824 821 819 817 814 811 808 805 803 801 799
794 799 803 809 814 820 824 829 834 838 842 844 846 848 850 850 851 851 851 850 849 847 845 846 845 844 843 841 839 835 832 830 827 824 822 819 817 814 811 809 806 803 801 798
799 803 808 813 817 822 827 833 836 840 843 845 847 849 850 850 851 851 850 849 848 847 846 845 844 842 840 839 838 835 831 830 827 824 821 819 816 814 811 808 806 803 800 797
805 810 814 819 823 827 831 834 837 840 843 845 847 848 849 850 850 850 850 846 846 846 845 843 841 840 838 836 835 832 830 828 825 823 820 817 815 812 810 807 804 802 799 797
811 815 819 822 826 829 833 835 838 840 843 845 846 847 849 849 848 847 846 847 846 845 844 841 839 836 836 834 833 830 827 824 822 820 817 815 812 810 807 805 802 800 797 795
813 816 820 824 827 830 834 837 839 841 843 845 846 848 848 847 847 846 845 845 845 843 842 839 837 835 833 832 830 827 824 821 819 816 813 810 808 805 803 801 799 797 795 793
815 818 822 825 829 832 834 837 839 841 843 845 846 847 847 846 845 844 843 843 843 841 840 837 835 833 831 829 826 823 820 817 815 812 809 806 804 801 797 794 793 792 791 789
816 819 823 826 828 830 832 836 838 839 842 842 843 845 846 845 845 844 844 843 841 840 838 836 833 831 829 827 824 821 818 815 812 809 807 804 800 798 796 792 789 785 784 784
816 819 822 824 825 827 829 833 833 835 837 839 840 842 844 844 843 843 842 841 840 838 837 835 832 831 828 826 824 821 818 815 812 808 806 802 799 796 793 789 786 783 779 777
816 818 821 824 825 827 829 831 833 835 838 840 840 841 842 843 842 842 842 840 839 838 836 834 832 830 828 826 823 820 817 814 811 808 806 802 799 795 791 787 783 780 777 773